Lid_Strength_Index
3 2 1 1 -0 -1 -1 -1 -1 -1 -1 -1 -1 -2 -2 -1 -1 -0 0 -0 -0 -0 -1 -1 -1 -0 2 6 7 2 -1 1 4 5 6 7 9 10 12 11 11 12 11 10 9 10 11
3 2 1 0 -0 -1 -1 -2 -1 -1 -1 -1 -2 -2 -2 -2 -1 -1 -0 -0 -0 -1 -1 -1 -1 -0 4 10 3 1 3 4 5 6 7 7 9 9 11 11 12 10 10 10 10 11 10
3 2 1 1 -0 -1 -1 -1 -2 -1 -1 -1 -1 -2 -2 -1 -1 -2 -1 -1 -1 -1 -1 -1 0 3 6 7 3 2 3 4 5 6 8 7 7 8 10 12 10 11 13 12 11 11 11
4 2 1 1 1 -0 -1 -1 -1 -1 -1 -1 -1 -1 -1 -1 -1 -1 -1 -2 -1 -1 -1 -1 -0 4 8 3 2 3 3 5 5 5 7 7 7 8 9 10 11 13 14 17 12 11 11
4 3 2 1 1 0 -0 -1 -1 -1 -1 -1 -1 -1 -1 -1 -1 -1 -1 -1 -1 -1 -1 -0 3 5 9 2 5 4 4 6 6 6 7 6 8 10 10 13 15 15 18 16 14 11 11
4 4 2 2 1 1 0 -0 -1 -1 -1 -1 -1 -1 -1 0 -0 0 -1 -1 -0 1 2 2 3 8 6 8 5 4 4 5 6 7 9 10 12 14 14 15 20 18 18 16 17 13 12
3 4 3 2 1 1 0 0 -0 -0 -1 -1 -1 -1 -1 0 -0 -1 1 3 6 6 5 7 7 8 7 5 3 6 4 6 7 9 14 11 15 18 16 15 15 16 17 18 15 12 14
3 4 3 2 2 1 1 1 0 0 -0 -0 -0 -0 -1 -1 -0 -0 3 6 6 6 8 5 6 6 5 5 8 6 4 8 10 13 12 14 17 14 12 13 14 15 17 17 14 12 13
3 3 4 3 2 2 1 1 1 1 1 0 0 0 0 -0 0 3 5 6 3 4 10 8 6 7 6 5 8 8 6 8 11 12 13 15 13 11 12 14 14 16 17 16 16 13 13
3 3 3 4 3 2 1 1 1 1 1 1 0 0 1 -0 3 5 6 3 3 4 15 12 9 7 6 6 9 5 5 7 10 12 12 14 12 12 13 14 14 16 12 13 13 17 21
3 3 3 4 4 2 2 1 1 1 1 2 1 1 1 0 5 6 4 3 4 7 20 11 9 4 6 8 8 8 5 7 11 11 12 14 13 13 13 12 12 13 11 12 13 16 19
3 3 3 4 5 3 2 1 1 2 2 2 2 3 1 3 4 4 3 4 6 17 22 13 9 9 9 9 9 8 8 7 8 10 11 12 10 11 11 10 10 10 12 12 13 15 18
3 3 3 4 5 4 2 2 2 2 2 3 3 3 4 3 6 4 4 6 17 19 12 13 11 9 10 10 10 9 10 12 14 19 15 12 11 10 9 11 10 11 14 21 20 19 21
2 2 3 4 4 5 4 3 2 2 2 3 4 4 4 5 5 5 6 13 19 14 13 9 9 10 12 11 10 10 10 12 10 12 13 20 19 11 9 10 11 11 13 17 24 21 20
2 2 3 4 5 4 4 3 2 2 2 3 4 7 7 6 5 6 10 18 18 13 9 10 10 12 12 10 10 9 11 12 10 10 15 15 15 9 9 8 10 14 14 11 19 18 18
1 2 2 3 5 4 5 4 4 3 3 3 8 8 8 6 6 8 13 15 13 9 9 9 14 12 13 11 11 11 12 9 10 9 10 11 15 11 10 9 10 10 11 17 15 21 23
1 2 2 3 5 5 4 5 5 4 3 4 8 9 6 5 6 10 15 15 11 9 9 11 12 11 11 11 10 11 12 10 9 10 10 11 13 13 12 13 13 12 14 15 14 17 20
1 2 2 3 5 5 5 5 5 5 5 6 9 14 6 5 11 13 14 11 9 10 10 10 11 12 13 13 13 14 14 12 9 10 12 11 14 19 15 11 10 12 14 15 18 18 16
1 2 2 3 4 5 5 5 5 5 7 10 11 12 6 6 14 15 12 10 10 10 10 10 11 10 11 13 15 13 12 9 9 10 12 12 16 22 18 15 13 14 13 13 14 15 18
1 2 2 4 5 5 5 5 5 5 5 11 11 15 10 10 11 12 13 12 12 9 10 9 10 10 11 12 12 14 13 10 9 9 8 10 14 17 20 17 14 15 13 13 14 18 18
1 1 2 4 5 5 5 5 5 5 5 9 12 15 13 15 13 13 12 12 12 12 10 9 11 11 12 14 14 14 12 11 9 8 10 11 16 16 14 13 13 13 13 13 14 14 17
1 2 2 4 5 6 6 6 6 6 5 11 13 14 13 14 12 14 14 13 13 12 11 12 12 11 11 13 13 14 12 13 13 12 13 12 16 15 17 14 14 16 14 14 13 13 13
1 1 2 3 5 6 6 6 6 6 7 12 11 12 13 14 14 15 15 13 12 11 11 10 11 12 13 11 11 10 11 11 12 13 13 14 16 18 19 16 16 18 16 15 14 13 13
1 1 1 2 4 6 6 6 6 6 7 11 12 12 14 16 16 15 14 13 13 12 13 11 11 12 11 9 10 11 12 12 12 12 12 14 15 17 19 18 25 17 13 13 14 13 13
1 1 1 2 3 5 6 6 6 7 7 12 12 13 15 17 15 15 15 15 14 13 13 12 11 11 10 11 14 16 16 15 13 13 13 12 14 18 20 21 17 15 15 14 15 15 13
1 1 1 2 3 4 5 6 7 7 7 11 12 12 14 16 17 15 15 14 16 17 15 13 11 10 11 12 15 19 20 18 18 17 14 13 13 16 19 21 21 18 14 12 13 18 13
1 1 2 2 3 4 5 7 6 7 7 11 12 12 13 16 15 15 16 15 13 15 16 15 14 13 12 15 17 18 20 17 19 19 19 17 16 17 17 19 17 14 13 13 20 18 13
1 2 2 3 3 4 5 6 7 7 7 11 12 12 13 16 15 13 13 15 14 14 15 15 15 15 16 17 18 18 19 17 19 18 17 18 20 20 19 21 21 13 14 16 15 13 12
2 3 3 4 4 4 4 5 6 6 7 9 13 11 12 15 15 12 12 12 12 12 13 14 15 14 14 18 17 18 19 18 19 20 17 19 16 17 17 17 13 13 13 12 12 12 12